Location: Cheching
(60.0667°N, 164.2167°W)
Time: 22:11:28
(UTC+00:00)

XW-2D - Pass Details

Date: 24 January 2021
Orbit: 505 x 525 km, 97.5° (Epoch: 07 March)

Event Time Altitude Azimuth Distance (km) Brightness Sun altitude
Rises 17:59:46 0° 13° (NNE) 2,674 ? -10.3°
Reaches altitude 10° 18:01:57 10° 7° (N) 1,782 ? -10.1°
Maximum altitude 18:05:36 43° 295° (WNW) 752 ? -9.6°
Drops below altitude 10° 18:09:14 10° 224° (SW) 1,774 ? -9.2°
Sets 18:11:24 0° 217° (SW) 2,659 ? -9.0°
